ŠKODA Velotour E-Race 2021

Virtual MTB
DATE :1.5.2021 PLACE  :Frankfurt
ORGANIZER : ROUVY

Selected athletes overview

Selected athletes will be displayed here. Currently nothing selected.
EXPORT :   XLS
Results -
Loading...
Rank Bib Fullname Nat. Year Club Time Gap
DISPLAY ON PAGE
Rank Bib Fullname Nat. Year Club Time Gap
1 308 athlete detail HEINOWSKY Enrico GER 1979 MRC Berlin 0:27:28.6 0:00:00.0
2 387 athlete detail SCHULTE Dominik GER 1977 Mondraker Rockets 0:28:57.4 0:01:28.7
3 353 athlete detail STUMPP Markus GER 1980 TEAM IMNAUER 0:29:09.4 0:01:40.7
4 139 athlete detail VAGNER Romain FRA 1980 --- 0:29:18.8 0:01:50.1
5 414 athlete detail SHEJBAL Jan CZE 1974 Vojtěši Příbraz 0:29:33.3 0:02:04.7
6 559 athlete detail EILERS Joerg GER 1973 --- 0:29:39.4 0:02:10.8
7 146 athlete detail STRÖMER Tobias GER 1974 --- 0:29:49.5 0:02:20.9
8 423 athlete detail BERARDI Emiliano ITA 1978 The Cycling Owls 0:30:11.1 0:02:42.4
9 346 athlete detail KREMER Dennis GER 1978 Grenzfahrer e.V. 0:31:20.9 0:03:52.3
10 382 athlete detail MAES Peter BEL 1971 BZR eCycling Club 0:31:42.7 0:04:14.1
11 398 athlete detail GEIGER Leif GER 1979 Mountain Sports Oberursel e.V. 0:31:49.6 0:04:20.9
12 129 athlete detail PAHL Rainer GER 1975 SV Upsprunge 0:31:51.4 0:04:22.7
13 479 athlete detail THOMAS Jens GER 1973 TSG-Training.de 0:32:31.3 0:05:02.7
14 31 athlete detail HAßLÖCHER Martin GER 1971 --- 0:32:34.2 0:05:05.6
15 401 athlete detail ARMAND Antoine GER 1975 FRA 0:32:47.9 0:05:19.3
16 396 athlete detail KRONENTHALER Wolfgang GER 1975 --- 0:32:48.3 0:05:19.6
17 470 athlete detail HÖFER Patrick GER 1979 VFL Verna/Allendorf 0:32:49.5 0:05:20.9
18 54 athlete detail KEMPKA Thomas GER 1976 Wurstkraft 0:32:51.7 0:05:23.1
19 535 athlete detail DIETL Matthias GER 1979 --- 0:33:29.5 0:06:00.8
20 274 athlete detail PRISTAS Vincent SVK 1975 --- 0:33:39.3 0:06:10.6
21 84 athlete detail STURM Thomas GER 1972 --- 0:33:43.3 0:06:14.7
22 93 athlete detail LOZZI Michael FRA 1978 --- 0:33:52.0 0:06:23.3
23 355 athlete detail JAHN Hendrik GER 1975 team-naunheim.de 0:34:03.1 0:06:34.5
24 513 athlete detail KONVICKA Adam CZE 1977 --- 0:34:22.6 0:06:54.0
25 201 athlete detail STEINBUß André GER 1975 --- 0:34:31.2 0:07:02.5
26 375 athlete detail MAIER Christoph GER 1977 Hilti gives virtual power ... :-) 0:34:36.2 0:07:07.5
27 494 athlete detail FERRA mic ITA 1980 Rouvynati 0:34:49.3 0:07:20.6
28 18 athlete detail ODEKERKEN Christophe NED 1973 --- 0:34:50.2 0:07:21.5
29 341 athlete detail SCHÄFER Uwe GER 1971 --- 0:34:57.0 0:07:28.3
30 383 athlete detail HÖRNING Carsten GER 1975 --- 0:35:00.9 0:07:32.2
31 165 athlete detail SMITH John GBR 1972 --- 0:35:02.8 0:07:34.2
32 466 athlete detail WITMAIER Eduard GER 1977 --- 0:35:08.0 0:07:39.4
33 13 athlete detail FRIEDRICH Enrico GER 1974 --- 0:35:09.7 0:07:41.0
34 611 athlete detail BASSELER Micha GER 1976 BaRoHoliker 0:35:12.3 0:07:43.7
35 255 athlete detail SALVI Matteo ITA 1973 Fitline Italia 0:35:23.4 0:07:54.8
36 64 athlete detail VELDTMANN Pierre RSA 1971 --- 0:35:26.9 0:07:58.3
37 334 athlete detail SENFT Stefan GER 1977 --- 0:35:31.1 0:08:02.4
38 464 athlete detail WEGNER Alex GER 1978 --- 0:35:39.0 0:08:10.4
39 149 athlete detail M. Marc GER 1979 Taunus Cruiser 0:35:50.1 0:08:21.5
40 372 athlete detail HIBI Atsuo JPN 1979 --- 0:36:05.7 0:08:37.1
41 343 athlete detail CALDERON Oscar COL 1975 --- 0:36:35.8 0:09:07.2
42 75 athlete detail TAYLOR Mike GBR 1978 --- 0:36:37.4 0:09:08.7
43 615 athlete detail BENALAL Nicholai SWE 1975 RSG Frankfurt 0:36:39.2 0:09:10.5
44 167 athlete detail ALT Jürgen GER 1974 --- 0:36:51.2 0:09:22.6
45 47 athlete detail SZAJAK Rafael GER 1980 --- 0:36:54.7 0:09:26.1
46 269 athlete detail SCHÄCHL Hans GER 1971 Besi 0:36:54.8 0:09:26.2
47 277 athlete detail DAY Chris CZE 1973 --- 0:37:15.1 0:09:46.5
48 558 athlete detail ROST Philipp GER 1976 --- 0:37:15.4 0:09:46.7
49 537 athlete detail NICOLAS51 Nicolas FRA 1978 --- 0:37:28.0 0:09:59.3
50 138 athlete detail STOCKMANN Florian GER 1978 --- 0:37:29.2 0:10:00.5
51 106 athlete detail MAGS Karl GER 1979 Dynamo Sauerland 0:37:32.9 0:10:04.3
52 92 athlete detail RÖHRICHT Marcus GER 1974 --- 0:37:41.8 0:10:13.2
53 62 athlete detail WECK Andreas GER 1973 TaunaDent 0:37:54.2 0:10:25.5
54 536 athlete detail DEMARCHI Vladimiro SUI 1971 https://www.strava.com/athletes/10207719 0:37:58.1 0:10:29.5
55 617 athlete detail LOZANO Gustavo A. COL 1978 Café de Kolumbien 0:38:08.9 0:10:40.2
56 412 athlete detail DEBONS Nicolas SUI 1978 Triathlon Club Valais - TEMPO SPORT Be The Change 0:38:09.4 0:10:40.7
57 246 athlete detail SECRIERU Daniel GER 1978 --- 0:38:11.1 0:10:42.5
58 349 athlete detail GAUKLER Florian GER 1979 --- 0:38:24.7 0:10:56.1
59 333 athlete detail THOMPSON Jim USA 1973 rct 0:38:34.2 0:11:05.5
60 449 athlete detail KÜNAST Andreas GER 1972 ZRG Cycling Club 0:39:01.6 0:11:32.9
61 434 athlete detail HOHEISEL Johannes GER 1977 --- 0:39:11.4 0:11:42.8
62 11 athlete detail BACON Chris CZE 1973 --- 0:39:34.3 0:12:05.6
63 235 athlete detail EGGER Toni AUT 1974 --- 0:39:34.6 0:12:05.9
64 203 athlete detail HOEFER Claus GER 1979 --- 0:39:38.4 0:12:09.8
65 113 athlete detail BAUER Martin AUT 1971 --- 0:39:50.3 0:12:21.6
66 187 athlete detail KNECHT Thomas GER 1979 MTBC Wehrheim 0:39:58.0 0:12:29.3
67 253 athlete detail SING Freddy BEL 1980 --- 0:40:01.6 0:12:32.9
68 551 athlete detail PODHOREC Rasto SVK 1972 --- 0:40:07.5 0:12:38.8
69 160 athlete detail KOCH Mario GER 1978 --- 0:40:13.4 0:12:44.7
70 415 athlete detail ATZKERN Christian GER 1973 --- 0:40:16.8 0:12:48.2
71 158 athlete detail JERGL Johann GER 1977 --- 0:40:18.0 0:12:49.4
72 447 athlete detail HUFER Andreas GER 1977 --- 0:40:33.6 0:13:05.0
73 452 athlete detail KRATTINGER Michaël SUI 1980 Les Mardistes 0:40:37.4 0:13:08.7
74 495 athlete detail BRECHTKEN Gunnar GER 1973 --- 0:40:43.3 0:13:14.7
75 474 athlete detail SAUFF Harald GER 1980 Team Zoot/Triabolos Hamburg e.V. 0:41:12.6 0:13:44.0
76 417 athlete detail HÄMMERLI Markus SUI 1977 Hanigalp 0:41:24.5 0:13:55.8
77 490 athlete detail BISHOP James GBR 1974 --- 0:41:24.7 0:13:56.0
78 225 athlete detail ROJAS Jose Maria ESP 1975 G.C. Toledo Ciudad Imperial 0:41:28.4 0:13:59.8
79 145 athlete detail ROST Jan Philipp GER 1979 --- 0:42:03.7 0:14:35.0
80 140 athlete detail JUHNKE Hanno GER 1976 --- 0:42:27.4 0:14:58.7
81 188 athlete detail TEUTSCH Oliver GER 1971 --- 0:42:31.9 0:15:03.3
82 566 athlete detail BERTRAND Alain LUX 1976 --- 0:43:03.0 0:15:34.4
83 575 athlete detail SCHMIDT Heiko GER 1972 --- 0:43:09.9 0:15:41.2
84 413 athlete detail MALLARD Sebastien FRA 1977 --- 0:43:37.1 0:16:08.4
85 276 athlete detail FUCHS Christoph GER 1976 --- 0:43:52.8 0:16:24.1
86 156 athlete detail HENNINGS Christian GER 1978 --- 0:43:54.5 0:16:25.8
87 501 athlete detail MOSER Christian AUT 1976 --- 0:43:59.7 0:16:31.0
88 450 athlete detail GOEBEL Ger GER 1976 Rochus Vital 0:44:01.1 0:16:32.5
89 124 athlete detail HERMANN Julian GER 1978 --- 0:44:43.8 0:17:15.1
90 562 athlete detail ARCE Javier ESP 1978 --- 0:44:59.3 0:17:30.6
91 485 athlete detail RAKBAMRUNG Krisada THI 1972 --- 0:46:10.9 0:18:42.2
92 114 athlete detail BARCZAK Darren AUS 1972 --- 0:46:10.9 0:18:42.2
93 168 athlete detail KROLLA Matthias GER 1971 Power 0:46:14.5 0:18:45.8
94 624 athlete detail FRAN Ivan CRO 1979 --- 0:46:34.1 0:19:05.5
95 461 athlete detail KNÖSS Alex GER 1973 Eintracht Frankfurt Triathlon 0:46:55.6 0:19:26.9
96 290 athlete detail JANßEN Christian GER 1976 --- 0:47:29.3 0:20:00.7
97 59 athlete detail MÜLLER Christian GER 1976 --- 0:47:39.2 0:20:10.6
98 131 athlete detail BÜNDGENS Andreas GER 1979 --- 0:47:45.1 0:20:16.5
99 27 athlete detail GOMES MARTINS MUNOZ August ESP 1974 --- 0:48:02.1 0:20:33.4
100 249 athlete detail MALÝ Miroslav CZE 1980 GHOST team 0:48:05.2 0:20:36.6

Don't you find yourself in results list? Contact timekeeper's team.